Theta_e
355 356 346 348 345 356 359 358 348 336 339 347 351 357 355 355 357 357 358 353 350 345 341 341 342 343 343 343 342 341 340 340 339 340 339 340 341 343
353 352 349 350 353 355 360 360 361 354 342 347 350 355 358 356 356 358 357 348 345 342 339 338 338 338 338 337 337 337 337 337 337 335 335 335 336 338
357 355 355 358 354 360 359 360 357 356 345 346 350 359 357 356 359 359 357 357 357 340 338 337 335 334 335 335 335 335 335 334 333 333 333 333 335 338
357 358 355 355 357 357 353 357 351 352 348 348 353 352 355 357 356 356 355 354 358 343 338 336 333 332 331 331 332 331 329 328 328 328 328 331 334 338
358 358 357 357 358 356 354 351 353 352 350 349 347 351 359 353 352 353 354 355 356 345 338 335 333 331 329 328 328 325 322 322 322 322 324 325 329 334
361 360 360 359 358 357 355 352 355 353 350 348 347 347 355 354 350 346 345 349 348 350 346 341 339 335 332 329 328 326 320 318 317 317 318 319 320 327
361 362 361 355 347 350 353 354 352 349 347 344 344 345 345 343 342 346 344 344 349 349 347 347 348 347 347 334 337 332 325 322 320 318 317 316 317 321
359 361 358 348 346 338 339 340 352 351 350 346 345 343 347 346 346 344 342 341 338 348 347 343 348 346 345 346 339 334 326 324 322 320 318 317 317 319
363 360 352 351 349 355 339 335 337 336 339 353 349 347 348 351 350 348 348 343 341 345 347 341 346 344 345 344 330 328 324 322 322 321 320 317 316 316
359 358 357 357 355 354 353 352 352 353 352 350 354 353 355 355 355 352 351 347 348 347 348 339 342 340 343 345 329 326 322 320 320 320 318 316 313 312
358 358 358 358 338 329 353 351 351 351 337 331 332 331 330 330 338 350 343 342 338 339 346 340 340 339 342 343 344 325 320 318 318 318 317 315 311 310
349 353 331 338 327 323 352 352 348 349 350 351 351 343 336 343 327 351 347 341 342 337 347 341 340 339 336 342 346 342 341 316 314 314 313 312 308 335
347 346 347 323 318 314 319 358 341 342 342 350 352 351 352 353 351 350 352 349 345 345 346 345 341 342 339 337 341 344 344 337 340 330 309 308 307 323
346 344 343 314 311 311 319 318 314 323 340 343 345 352 350 353 356 354 357 354 354 352 356 349 343 343 342 338 339 344 343 343 344 342 341 324 308 310
347 333 317 310 311 315 314 313 315 336 336 337 339 347 355 357 355 355 356 357 355 354 354 354 350 352 345 340 338 340 340 340 343 342 342 341 336 327
325 329 321 321 317 323 323 321 333 336 336 336 337 338 339 343 344 345 346 349 343 343 347 348 350 347 341 345 344 340 345 338 348 345 341 341 341 340
323 326 325 326 327 328 329 331 331 330 331 332 331 332 333 335 334 339 340 342 339 336 335 340 347 346 343 341 337 338 337 340 345 342 342 338 340 340
320 330 332 330 329 330 328 326 327 326 327 328 329 329 330 332 335 339 344 340 336 335 331 331 334 338 341 340 335 337 339 337 340 344 343 335 335 337
330 329 326 326 327 329 329 331 331 333 335 333 333 333 333 335 333 332 331 335 334 336 337 338 335 333 328 325 323 307 317 335 340 338 338 333 332 339
327 326 325 324 325 325 325 325 326 326 329 331 331 330 331 332 329 330 329 329 331 332 333 336 336 334 329 326 327 312 304 312 320 323 325 331 331 319
326 325 324 323 323 322 322 323 324 325 326 328 328 328 327 326 326 327 327 316 320 327 326 327 333 319 328 321 316 313 311 307 308 320 319 320 320 322
327 325 325 325 324 326 326 327 325 323 322 323 324 325 325 326 326 325 325 323 325 326 324 328 329 328 324 321 319 312 312 312 311 308 307 309 319 318
328 327 325 326 327 327 327 327 326 327 326 327 328 326 326 325 323 325 326 326 322 320 321 320 320 320 323 322 317 313 310 311 314 313 311 307 307 308
Wind_Speed
13 11 9 6 6 9 8 9 10 9 11 8 6 8 5 6 4 8 9 3 2 8 10 11 11 11 11 9 9 8 8 6 6 7 10 11 13 15
9 12 12 10 11 10 10 9 8 9 11 9 4 1 3 6 5 6 8 3 7 6 7 9 10 9 9 10 10 9 8 7 5 9 11 11 12 14
15 14 15 14 9 8 9 9 8 9 10 10 10 2 5 8 7 7 6 7 4 8 6 6 8 10 9 9 8 7 8 7 8 10 9 11 12 13
17 14 13 11 14 12 11 11 9 9 9 11 9 6 9 5 7 7 6 4 4 10 10 10 9 8 7 7 8 11 11 9 9 8 9 10 13 11
16 14 15 15 12 12 11 7 10 8 8 9 9 6 4 5 5 6 5 5 4 9 10 8 9 7 9 11 12 10 8 9 9 9 9 10 11 9
16 15 17 16 16 14 11 9 10 9 9 8 9 6 5 3 5 6 4 4 4 6 7 7 8 12 14 12 11 9 9 11 10 8 9 9 9 7
15 15 16 16 14 14 11 12 9 10 8 7 7 6 6 6 6 4 5 5 3 6 7 7 9 9 11 14 14 14 12 12 11 8 8 8 8 6
15 16 14 13 13 12 11 3 13 12 11 9 9 8 9 6 7 7 6 4 6 7 7 7 7 9 9 10 13 14 17 14 11 9 7 7 7 6
15 14 14 12 14 15 12 7 8 10 10 10 10 10 8 9 8 8 6 5 7 3 4 8 7 9 8 6 12 11 12 12 11 10 9 7 8 7
14 14 13 12 15 15 14 15 14 14 14 11 12 9 9 7 7 8 7 7 7 6 4 8 8 9 7 8 13 12 11 11 10 10 9 9 7 8
14 15 12 11 10 12 13 12 12 12 14 14 12 4 4 3 2 5 7 7 8 8 8 7 9 8 7 7 5 11 12 11 10 10 10 8 7 8
9 9 8 6 9 13 14 12 11 10 11 11 12 12 8 9 8 10 8 8 9 7 5 8 8 8 7 6 2 7 7 10 11 10 10 8 9 6
5 5 4 8 7 7 12 7 1 4 4 5 8 10 10 11 10 11 13 10 9 9 5 7 7 5 6 8 4 5 6 7 8 9 10 10 12 12
8 7 7 11 9 10 6 4 2 2 2 5 6 8 8 8 7 8 10 11 10 12 6 10 9 9 8 9 8 5 6 6 7 8 9 12 11 12
4 3 8 5 9 7 6 7 7 4 3 3 7 6 5 4 6 7 9 10 10 11 9 10 9 10 10 11 9 8 5 7 7 8 9 9 9 8
7 5 6 5 2 5 8 6 4 3 3 4 2 4 2 4 5 4 5 6 6 9 9 11 11 11 10 12 10 10 9 6 4 8 9 9 10 11
3 4 3 2 3 2 2 2 2 1 2 1 1 2 2 4 6 6 6 7 9 9 6 5 10 13 12 13 10 10 11 11 10 8 9 10 10 10
4 5 4 2 3 4 4 4 4 5 5 5 6 7 7 10 8 7 7 8 9 7 6 6 7 7 8 9 9 11 10 11 10 12 11 10 11 10
4 5 4 3 5 4 3 1 1 1 2 4 5 6 7 5 5 5 6 8 8 8 8 7 6 6 7 7 4 16 4 11 9 8 9 9 11 10
4 4 3 3 2 3 2 1 0 1 2 2 3 2 4 4 3 5 5 7 8 8 7 7 7 6 7 3 2 3 8 4 5 7 4 4 2 5
5 5 4 4 4 3 3 2 3 3 3 1 1 2 2 2 3 4 4 6 6 5 6 5 4 3 2 3 2 1 2 9 4 3 0 1 1 1
5 6 5 4 4 4 4 4 6 4 3 3 2 1 1 2 2 3 3 4 4 5 5 4 2 4 4 3 2 4 3 1 6 16 16 9 2 0
3 5 6 5 5 5 4 4 4 4 4 3 2 4 3 4 2 1 3 2 2 4 3 2 2 2 2 2 4 4 5 2 4 7 8 12 11 11
Wind_Direction
224 216 214 219 237 240 240 239 234 256 262 253 228 186 239 243 258 276 274 157 225 233 201 188 178 180 189 189 202 211 224 237 256 270 276 283 289 286
221 213 217 225 234 236 228 241 237 239 268 272 268 192 275 289 267 266 269 175 189 207 182 177 181 186 195 204 208 215 225 233 245 264 273 285 287 283
222 222 219 225 231 232 225 227 228 226 243 262 268 108 278 266 297 269 257 253 184 188 197 205 204 202 203 215 222 229 236 240 243 253 272 284 288 281
220 221 214 211 216 219 213 216 235 238 246 254 269 293 252 257 260 278 274 266 233 183 207 214 214 223 216 222 229 227 223 234 247 260 275 286 287 273
215 211 218 215 207 220 216 202 217 225 223 251 263 252 275 247 248 248 275 267 262 153 198 224 231 227 233 232 230 228 225 233 244 257 270 282 279 271
217 211 212 213 211 209 210 204 235 217 214 233 251 247 245 213 250 270 242 246 237 232 216 243 226 220 230 234 242 238 236 238 237 249 265 277 277 271
219 217 220 217 207 210 198 197 208 219 216 208 241 248 239 213 242 257 254 265 214 244 250 235 223 233 233 225 250 228 224 233 235 240 260 282 280 261
220 215 220 207 204 204 219 223 182 210 218 201 208 217 240 234 219 246 240 246 261 207 242 271 259 236 238 240 202 212 197 212 224 238 243 265 262 231
222 214 211 205 212 212 210 200 198 203 245 229 223 211 220 222 243 212 233 200 249 199 228 262 201 257 258 268 150 181 188 199 204 227 231 234 241 220
230 215 210 213 196 216 206 200 211 207 217 234 224 227 212 226 217 224 236 215 240 264 208 263 269 262 257 260 159 181 186 197 206 227 222 219 218 212
225 219 213 222 195 212 224 204 198 210 185 209 264 327 64 96 200 210 215 218 241 213 207 248 278 265 246 260 250 181 179 188 209 224 220 210 213 201
204 216 223 252 201 194 223 216 205 201 226 188 216 244 232 225 211 234 239 235 258 286 194 191 239 241 260 210 281 163 190 196 202 212 216 209 179 202
194 201 209 204 183 224 248 221 241 353 236 250 216 221 218 221 221 214 235 243 254 253 184 219 264 302 267 267 209 207 255 141 197 199 205 209 196 208
221 211 209 166 182 171 202 252 34 38 277 248 243 246 245 239 238 241 236 242 243 253 275 236 252 253 262 268 265 196 209 236 211 220 205 186 198 224
230 147 123 166 166 164 178 177 166 189 213 222 248 250 275 295 289 270 259 257 265 271 266 253 251 265 259 260 268 271 258 234 226 246 228 200 202 196
104 90 110 123 128 125 157 181 180 175 180 220 251 265 297 359 306 292 283 277 263 261 243 255 259 253 255 258 262 264 263 254 250 229 246 215 228 216
127 147 135 131 140 135 148 178 173 184 199 190 215 308 298 255 253 254 240 245 247 261 255 245 242 244 252 251 257 251 253 256 249 249 228 242 235 224
219 189 167 109 126 147 165 173 190 196 217 223 217 218 222 240 245 247 254 259 260 261 272 265 262 261 250 250 248 267 269 257 256 254 236 232 229 222
203 121 131 146 144 143 129 84 127 93 310 247 257 259 254 242 247 251 239 261 268 263 263 267 273 264 266 261 157 41 287 275 280 256 244 236 241 233
94 76 85 96 116 104 93 79 319 276 280 294 282 290 314 301 275 258 240 254 262 264 268 271 272 275 263 269 301 110 33 296 272 272 312 285 256 44
98 114 130 101 87 89 92 58 20 25 7 323 334 324 343 317 296 278 268 270 290 280 276 273 291 78 124 128 157 152 24 6 353 280 32 31 83 334
120 106 111 112 105 101 95 136 131 138 102 99 81 28 336 282 303 286 287 312 304 297 297 316 240 215 210 224 185 139 133 347 66 60 56 50 355 69
128 128 146 133 143 155 149 134 124 106 114 73 56 73 355 58 5 286 311 326 300 307 318 284 275 239 279 263 165 152 139 114 85 71 59 40 64 86